Barnum, MN (55707)

9:12 AM CST on December 19, 2014 (GMT -0600)
Coffee Lake | Change Station
CLOSE
Current Station
Personal Weather Station
Location: Moose Lake Twp., MN
Elevation: 1060 ft
Nearby Weather Stations

Elev 1060 ft 46.43 °N, 92.78 °W | Updated 21 seconds ago

Snow
Snow
22.5 °F
Feels Like 22 °F
N
0.0
Wind Variable Wind from WSW
Gusts 0.0 mph

Today
High -- | Low -- °F
--% Chance of Precip.
Yesterday
High -- | Low -- °F
Precip. -- in
7:50 AM 4:25 PM
Waning Crescent, 7% visible
Pressure 30.21 in
Visibility 1.8 miles
Clouds Overcast 1100 ft
Windchill 22 °F
Dew Point 17 °F
Humidity 80%
Rainfall 0.00 in
Snow Depth Not available.
UV 0 out of 12
Pollen .10 out of 12
Air Quality Not available.
Flu Activity Not available.
METAR KMZH 191453Z AUTO 16004KT 1 3/4SM -SN OVC011 M05/M07 A3021 RMK AO2

More Conditions Fewer Conditions

Pressure 30.21 in
Visibility 1.8 miles
Clouds Overcast 1100 ft
Windchill 22 °F
Dew Point 17 °F
Humidity 80%
Rainfall 0.00 in
Snow Depth Not available.
UV 0 out of 12
Pollen .10 out of 12
Air Quality Not available.
Flu Activity Not available.
METAR KMZH 191453Z AUTO 16004KT 1 3/4SM -SN OVC011 M05/M07 A3021 RMK AO2

More Conditions Fewer Conditions

10-Day Weather Forecast

Almanac

Astronomy

Dec. 19, 2014 Rise Set
Actual Time
Civil Twilight
Nautical Twilight
Astronomical Twilight
Moon
Length of Visible Light
Length of Day
Tomorrow will be .
, % of the Moon is Illuminated

Today's Extremes

State Highs State Lows

Community

WunderPhotos

Upload Photos

1,778,996 photos uploaded!

WunderBlogs® & News

Nearby

Air Quality

  Air Quality AQ Index Pollutant
Not available.

Snow Depth

Station Depth Elevation

Earthquake Activity

City Distance Mag. Time & Date
Minimum magnitude displayed is 2.5.

Coastal Water Temperatures

Place Temperature

Nearby Weather Stations